Regional Weather Roundup
Issued by NWS

Home | Current Version | Previous Version | Text Only | Print | Product List | Glossary On
Versions: 1 2 3 4 5 6 7 8 9 10 11 12 13 14 15 16 17 18 19 20 21 22 23 24 25 26 27 28 29 30 31 32 33 34 35 36 37 38 39 40 41 42 43 44 45 46 47 48 49 50
000
ASUS45 KBOU 110907
RWRCO

WEATHER ROUNDUP FOR COLORADO
NATIONAL WEATHER SERVICE DENVER/BOULDER CO
200 AM MST THU FEB 11 2016

NOTE: "FAIR" INDICATES FEW OR NO CLOUDS BELOW 12000 FEET WITH NO
SIGNIFICANT WEATHER AND/OR OBSTRUCTIONS TO VISIBILITY.

COZ001>005-013-030-031-111000-
...NORTHWEST COLORADO...

CITY           SKY/WX    TMP DP  RH WIND       PRES   REMARKS
CRAIG          CLOUDY    -1  -4  87 CALM      30.39S
HAYDEN         CLOUDY    18  10  73 E12       30.37R WCI   5
MEEKER         CLOUDY    12   6  77 CALM      30.39R
MOUNT WERNER   NOT AVBL
STEAMBOAT SPGS CLOUDY    15  12  89 CALM      30.38S
WALDEN         CLOUDY    14   5  67 SE9       30.36S WCI   2
$$

COZ006>008-011-111000-
...WEST CENTRAL VALLEYS...

CITY           SKY/WX    TMP DP  RH WIND       PRES   REMARKS
GRAND JUNCTION CLOUDY    25  23  92 CALM      30.39S
MONTROSE       CLOUDY    23  16  74 S6        30.43R WCI  16
EAGLE          CLOUDY    18  14  86 CALM      30.44S
RIFLE          CLOUDY    19  13  77 CALM      30.42S
DELTA          CLOUDY    28  24  85 CALM      30.42S
NUCLA          NOT AVBL
$$

COZ017>023-064>068-111000-
...SOUTHWEST COLORADO...

CITY           SKY/WX    TMP DP  RH WIND       PRES   REMARKS
DURANGO        CLOUDY    18  13  80 N7        30.36S WCI   9
CORTEZ         CLOUDY    22  16  78 E10       30.36S WCI  11
PAGOSA SPRINGS CLOUDY    22  18  85 CALM      30.36F
TELLURIDE      CLOUDY    28   4  35 SE7       30.44S WCI  21
WOLF CREEK PAS CLOUDY    28  -8  20 N10       30.49F WCI  19
$$

COZ009-010-012-014-032>034-037-058>063-111000-
...CENTRAL COLORADO...

CITY           SKY/WX    TMP DP  RH WIND       PRES   REMARKS
ASPEN          CLOUDY    17   8  67 S7        30.39S WCI   8
BUENA VISTA    CLOUDY    32  10  39 NW8       30.33S WCI  25
COPPER MTN     CLOUDY    25   1  36 W9        30.44S WCI  15
BERTHOUD PASS  FAIR      19   9  63 NW40G47   30.35F WCI  -2
COTTONWOOD PAS CLOUDY    36   0  21 W10G24    30.35S
GUNNISON       CLOUDY    -9 -20  59 CALM      30.51R
KREMMLING      CLOUDY    -6  -9  84 CALM      30.45R
LEADVILLE      CLOUDY    20   1  43 NE10      30.39S WCI   9
MONARCH PASS   CLOUDY    23   0  36 MISG      30.52S
SALIDA         NOT AVBL
SUNLIGHT       CLOUDY    30   9  40 CALM        N/A
WILKERSON PASS CLOUDY    27   1  33 N15G24    30.40S WCI  15
$$

COZ069>075-111000-
...SAN LUIS VALLEY/SANGRE DE CRISTO MOUNTAINS...

CITY           SKY/WX    TMP DP  RH WIND       PRES   REMARKS
ALAMOSA        CLOUDY    19  16  88 E8        30.36S WCI   9
LA VETA PASS   CLOUDY    30   9  40 MISG      30.38F
SAGUACHE       CLOUDY    25  12  58 NW12      30.38R WCI  14
$$

COZ035-036-038>040-111000-
...NORTHERN COLORADO FRONT RANGE...

CITY           SKY/WX    TMP DP  RH WIND       PRES   REMARKS
DENVER INTL AP CLOUDY    37  17  44 S6        30.18F
DMNS CITY PARK   N/A     37  17  43 E12       30.18F
AURORA         NOT AVBL
FRONT RANGE AP   N/A     32  21  64 S9        30.20S WCI  24
ERIE MUNI ARPT CLOUDY    30  21  68 CALM      30.18S
BOULDER MUN AP CLOUDY    52  10  19 W15G21    30.17F
CENTENNIAL     CLOUDY    37  15  40 SW7       30.20F
BROOMFIELD     CLOUDY    48  12  23 NW14      30.20S
FORT COLLINS   CLOUDY    34  18  51 S9        30.17F WCI  26
LONGMONT       CLOUDY    34  20  57 SW5       30.20S WCI  30
$$

COZ041-046-047-076>085-087-088-111000-
...PIKES PEAK/PALMER DIVIDE AND SOUTHERN FOOTHILLS...

CITY           SKY/WX    TMP DP  RH WIND       PRES   REMARKS
COLO. SPRINGS  CLOUDY    37  13  37 N15       30.23S
A. F. ACADEMY  CLOUDY    31  12  46 NE8       30.23R WCI  23
SCHRIEVER AFB  FAIR      39  11  30 NW9G17    30.23S
ELLICOTT       CLOUDY   N/A N/A N/A S10       30.22R
FALCON         NOT AVBL
FORT CARSON    CLOUDY    36  15  42 S10       30.21R
LIMON          CLOUDY    20  15  81 CALM      30.21S
MONUMENT HILL  CLOUDY    28   9  43 SW5       30.26R WCI  23
TRINIDAD       CLOUDY    38  10  31 NW5       30.25S
$$

COZ042>045-048>051-090-091-111000-
...NORTHEAST COLORADO...

CITY           SKY/WX    TMP DP  RH WIND       PRES   REMARKS
GREELEY ARPT   CLOUDY    27  19  74 CALM      30.17F
AKRON          CLOUDY    33  20  58 W10       30.15F WCI  25
BURLINGTON     CLOUDY    34  22  61 NW9       30.17R WCI  27
WRAY           NOT AVBL
STERLING       CLOUDY    34  27  75 S5        30.13F WCI  30
HOLYOKE        CLOUDY    32  27  80 W3        30.15R
FORT MORGAN    CLOUDY    33  21  62 W8        30.17R WCI  26
$$

COZ086-089-092>099-111000-
...SOUTHEAST COLORADO...

CITY           SKY/WX    TMP DP  RH WIND       PRES   REMARKS
PUEBLO         CLOUDY    31  21  66 NE3       30.21R
LA JUNTA       CLOUDY    37  25  61 W13       30.20S
LAMAR          CLOUDY    30  23  75 SW6       30.17S WCI  24
SPRINGFIELD      N/A     33  21  61 NW13      30.18S WCI  24
$$



USA.gov is the U.S. government's official web portal to all federal, state and local government web resources and services.